DW1779 Weather Reports


Display with metric or nautical units.
time (UTC)temp
F
wind
direction
speed
MPH
gust
MPH
rain 1hr
in
rain 24hr
in
rain mn
in
humidity
%
barometer
mb
20260902205600 97 169 3.0 9.0 0.00 0.00 0.00 42 1015.7
20260902205058 98 127 3.0 9.0 0.00 0.00 0.00 39 1015.7
20260902204607 98 200 2.0 8.0 0.00 0.00 0.00 41 1015.8
20260902204058 98 248 2.0 10.0 0.00 0.00 0.00 41 1015.9
20260902203557 98 165 4.0 11.0 0.00 0.00 0.00 40 1015.9
20260902203057 98 213 5.0 11.0 0.00 0.00 0.00 41 1016.0
20260902202557 98 165 3.0 10.0 0.00 0.00 0.00 45 1016.0
20260902202057 98 173 4.0 12.0 0.00 0.00 0.00 39 1016.1
20260902201621 99 113 5.0 12.0 0.00 0.00 0.00 39 1016.1
20260902201055 98 217 3.0 11.0 0.00 0.00 0.00 40 1016.1
20260902200656 99 191 4.0 11.0 0.00 0.00 0.00 40 1016.3
20260902200057 100 180 3.0 8.0 0.00 0.00 0.00 43 1016.4
20260902195556 99 225 4.0 11.0 0.00 0.00 0.00 40 1016.4
20260902195055 98 169 4.0 11.0 0.00 0.00 0.00 41 1016.5
20260902194554 97 219 2.0 10.0 0.00 0.00 0.00 46 1016.5
20260902194052 95 239 0.0 8.0 0.00 0.00 0.00 49 1016.6
20260902193556 95 164 2.0 11.0 0.00 0.00 0.00 45 1016.7
20260902193053 96 124 2.0 10.0 0.00 0.00 0.00 43 1016.7
20260902192552 95 244 2.0 6.0 0.00 0.00 0.00 46 1016.9
20260902192052 96 257 1.0 8.0 0.00 0.00 0.00 45 1016.9
20260902191552 96 191 4.0 8.0 0.00 0.00 0.00 46 1016.9
20260902191050 96 355 2.0 8.0 0.00 0.00 0.00 46 1016.9
20260902190653 93 342 2.0 5.0 0.00 0.00 0.00 50 1017.0
20260902190049 89 40 1.0 6.0 0.00 0.00 0.00 62 1017.1
20260902185548 90 101 1.0 6.0 0.00 0.00 0.00 58 1017.3
20260902185047 92 200 1.0 4.0 0.00 0.00 0.00 60 1017.2
20260902184547 94 323 1.0 5.0 0.00 0.00 0.00 47 1017.3
20260902184046 95 294 1.0 5.0 0.00 0.00 0.00 46 1017.4
20260902183546 95 232 0.0 5.0 0.00 0.00 0.00 45 1017.4
20260902183046 96 318 2.0 5.0 0.00 0.00 0.00 43 1017.5
20260902182545 97 264 2.0 6.0 0.00 0.00 0.00 45 1017.5
20260902182045 96 194 1.0 7.0 0.00 0.00 0.00 47 1017.6
20260902181545 96 276 1.0 4.0 0.00 0.00 0.00 49 1017.7
20260902181044 95 167 0.0 5.0 0.00 0.00 0.00 46 1017.7
20260902180644 95 272 2.0 5.0 0.00 0.00 0.00 46 1017.7
20260902180046 95 340 1.0 4.0 0.00 0.00 0.00 46 1017.7
20260902175546 95 315 1.0 7.0 0.00 0.00 0.00 46 1017.9
20260902175045 96 107 2.0 7.0 0.00 0.00 0.00 46 1017.9
20260902174550 95 129 2.0 4.0 0.00 0.00 0.00 51 1017.8
20260902174046 95 82 0.0 7.0 0.00 0.00 0.00 47 1018.0
20260902173543 95 138 3.0 7.0 0.00 0.00 0.00 45 1018.2
20260902173042 95 182 0.0 4.0 0.00 0.00 0.00 48 1018.1
20260902172542 95 192 2.0 6.0 0.00 0.00 0.00 46 1018.2
20260902172044 96 198 3.0 6.0 0.00 0.00 0.00 43 1018.2
20260902171543 96 183 2.0 6.0 0.00 0.00 0.00 44 1018.3
20260902171040 96 15 1.0 4.0 0.00 0.00 0.00 44 1018.3
20260902170510 97 165 1.0 5.0 0.00 0.00 0.00 48 1018.5
20260902170009 96 293 2.0 10.0 0.00 0.00 0.00 45 1018.5
20260902165509 96 279 5.0 10.0 0.00 0.00 0.00 45 1018.6
20260902165011 96 220 1.0 7.0 0.00 0.00 0.00 48 1018.6
20260902164513 96 257 3.0 7.0 0.00 0.00 0.00 50 1018.7
20260902164006 96 294 2.0 8.0 0.00 0.00 0.00 49 1018.8
20260902163503 95 288 2.0 9.0 0.00 0.00 0.00 49 1018.9
20260902163002 94 335 1.0 11.0 0.00 0.00 0.00 50 1018.9
20260902162502 94 322 5.0 11.0 0.00 0.00 0.00 50 1019.0
20260902162100 94 331 4.0 9.0 0.00 0.00 0.00 50 1019.0
20260902161559 94 269 4.0 10.0 0.00 0.00 0.00 50 1019.0
20260902161058 94 323 3.0 10.0 0.00 0.00 0.00 51 1019.1
20260902160509 94 281 2.0 12.0 0.00 0.00 0.00 52 1019.1
20260902160009 94 309 3.0 12.0 0.00 0.00 0.00 54 1019.1
20260902155505 94 307 4.0 9.0 0.00 0.00 0.00 53 1019.2
20260902155007 94 309 1.0 11.0 0.00 0.00 0.00 56 1019.1
20260902154507 93 341 4.0 11.0 0.00 0.00 0.00 55 1019.1
20260902154001 92 238 1.0 9.0 0.00 0.00 0.00 57 1019.1
20260902153600 92 171 3.0 12.0 0.00 0.00 0.00 57 1019.3
20260902153058 92 207 3.0 12.0 0.00 0.00 0.00 57 1019.2
20260902152556 91 263 2.0 11.0 0.00 0.00 0.00 59 1019.3
20260902152055 90 138 6.0 11.0 0.00 0.00 0.00 59 1019.4
20260902151558 89 138 3.0 11.0 0.00 0.00 0.00 61 1019.3
20260902151057 90 301 3.0 9.0 0.00 0.00 0.00 60 1019.5
20260902150506 90 325 1.0 9.0 0.00 0.00 0.00 59 1019.4
20260902150009 90 272 3.0 9.0 0.00 0.00 0.00 61 1019.4
20260902145504 90 242 1.0 7.0 0.00 0.00 0.00 61 1019.4
20260902145001 90 24 4.0 9.0 0.00 0.00 0.00 60 1019.3
20260902144602 89 180 2.0 9.0 0.00 0.00 0.00 62 1019.4
20260902144059 89 223 1.0 7.0 0.00 0.00 0.00 63 1019.4
20260902143558 88 216 2.0 9.0 0.00 0.00 0.00 63 1019.5
20260902143057 88 156 3.0 9.0 0.00 0.00 0.00 64 1019.4
20260902142556 88 177 2.0 7.0 0.00 0.00 0.00 66 1019.5
20260902142054 88 232 2.0 6.0 0.00 0.00 0.00 66 1019.5
20260902141554 87 288 2.0 6.0 0.00 0.00 0.00 67 1019.5
20260902141051 87 313 1.0 5.0 0.00 0.00 0.00 67 1019.4
20260902140502 86 209 1.0 6.0 0.00 0.00 0.00 69 1019.6
20260902140108 85 192 2.0 6.0 0.00 0.00 0.00 70 1019.7
20260902135558 84 173 1.0 6.0 0.00 0.00 0.00 70 1019.7
20260902135056 84 171 1.0 6.0 0.00 0.00 0.00 70 1019.7
20260902134555 83 159 1.0 7.0 0.00 0.00 0.00 73 1019.7
20260902134053 81 228 0.0 4.0 0.00 0.00 0.00 76 1019.8
20260902133552 79 307 0.0 5.0 0.00 0.00 0.00 82 1019.8
20260902133101 76 332 1.0 5.0 0.00 0.00 0.00 89 1019.8
20260902132550 74 186 0.0 2.0 0.00 0.00 0.00 92 1019.8
20260902132048 73 221 0.0 2.0 0.00 0.00 0.00 93 1019.9
20260902131557 72 187 0.0 1.0 0.00 0.00 0.00 93 1019.9
20260902131048 72 166 0.0 1.0 0.00 0.00 0.00 94 1019.9
20260902130650 71 163 0.0 1.0 0.00 0.00 0.00 94 1019.8
20260902130054 71 163 0.0 0.0 0.00 0.00 0.00 94 1019.8
20260902125555 70 163 0.0 0.0 0.00 0.00 0.00 94 1019.8
20260902125051 70 163 0.0 0.0 0.00 0.00 0.00 95 1019.8
20260902124551 69 163 0.0 0.0 0.00 0.00 0.00 95 1019.9
20260902124049 69 163 0.0 0.0 0.00 0.00 0.00 95 1019.9
20260902123550 69 163 0.0 0.0 0.00 0.00 0.00 94 1019.9
20260902123047 69 163 0.0 0.0 0.00 0.00 0.00 94 1019.8
20260902122547 69 163 0.0 0.0 0.00 0.00 0.00 94 1019.8
20260902122045 69 163 0.0 0.0 0.00 0.00 0.00 95 1019.6
20260902121552 69 163 0.0 0.0 0.00 0.00 0.00 95 1019.7
20260902121045 68 163 0.0 0.0 0.00 0.00 0.00 95 1019.6
20260902120645 68 163 0.0 0.0 0.00 0.00 0.00 95 1019.6
20260902120045 68 155 0.0 0.0 0.00 0.00 0.00 95 1019.5
20260902115545 68 155 0.0 0.0 0.00 0.00 0.00 95 1019.5
20260902115044 68 155 0.0 0.0 0.00 0.00 0.00 95 1019.3
20260902114550 68 155 0.0 0.0 0.00 0.00 0.00 94 1019.3
20260902114043 68 155 0.0 0.0 0.00 0.00 0.00 94 1019.2
20260902113542 68 155 0.0 0.0 0.00 0.00 0.00 94 1019.2
20260902113053 68 155 0.0 0.0 0.00 0.00 0.00 94 1019.2
20260902112540 69 155 0.0 0.0 0.00 0.00 0.00 94 1019.1
20260902112039 69 155 0.0 0.0 0.00 0.00 0.00 94 1019.0
20260902111539 69 155 0.0 0.0 0.00 0.00 0.00 94 1018.8
20260902111038 69 155 0.0 0.0 0.00 0.00 0.00 94 1018.8
20260902110640 69 155 0.0 0.0 0.00 0.00 0.00 94 1018.8
20260902110101 69 155 0.0 0.0 0.00 0.00 0.00 94 1018.7
20260902105559 69 155 0.0 0.0 0.00 0.00 0.00 94 1018.7
20260902105059 69 155 0.0 0.0 0.00 0.00 0.00 94 1018.6
20260902104611 69 155 0.0 0.0 0.00 0.00 0.00 94 1018.7
20260902104057 69 155 0.0 0.0 0.00 0.00 0.00 94 1018.6
20260902103557 69 155 0.0 0.0 0.00 0.00 0.00 94 1018.5
20260902103104 69 155 0.0 0.0 0.00 0.00 0.00 93 1018.7
20260902102558 69 155 0.0 0.0 0.00 0.00 0.00 93 1018.6
20260902102056 69 155 0.0 0.0 0.00 0.00 0.00 93 1018.6
20260902101556 70 155 0.0 0.0 0.00 0.00 0.00 93 1018.6
20260902101055 70 155 0.0 0.0 0.00 0.00 0.00 93 1018.5
20260902100654 70 155 0.0 0.0 0.00 0.00 0.00 92 1018.6
20260902095558 70 155 0.0 0.0 0.00 0.00 0.00 92 1018.5
20260902095056 70 155 0.0 0.0 0.00 0.00 0.00 92 1018.5
20260902094557 70 155 0.0 0.0 0.00 0.00 0.00 92 1018.6
20260902094056 70 155 0.0 0.0 0.00 0.00 0.00 91 1018.6
20260902093555 71 155 0.0 0.0 0.00 0.00 0.00 91 1018.6
20260902093055 71 155 0.0 0.0 0.00 0.00 0.00 91 1018.7
20260902092554 71 155 0.0 0.0 0.00 0.00 0.00 91 1018.7
20260902092055 71 155 0.0 0.0 0.00 0.00 0.00 91 1018.7
20260902091604 71 155 0.0 0.0 0.00 0.00 0.00 91 1018.6
20260902091053 71 155 0.0 0.0 0.00 0.00 0.00 90 1018.6
20260902090654 71 155 0.0 0.0 0.00 0.00 0.00 90 1018.6
20260902090058 71 155 0.0 0.0 0.00 0.00 0.00 90 1018.6
20260902085551 71 155 0.0 0.0 0.00 0.00 0.00 89 1018.4
20260902085051 71 155 0.0 0.0 0.00 0.00 0.00 89 1018.5
20260902084557 71 155 0.0 0.0 0.00 0.00 0.00 90 1018.4
20260902084051 72 155 0.0 0.0 0.00 0.00 0.00 89 1018.4
20260902083551 72 155 0.0 0.0 0.00 0.00 0.00 89 1018.3
20260902083111 72 155 0.0 0.0 0.00 0.00 0.00 89 1018.3
20260902082550 72 155 0.0 0.0 0.00 0.00 0.00 89 1018.3
20260902082050 72 155 0.0 0.0 0.00 0.00 0.00 89 1018.4
20260902081550 72 141 0.0 1.0 0.00 0.00 0.00 89 1018.4
20260902081050 72 153 0.0 0.0 0.00 0.00 0.00 88 1018.4
20260902080650 72 153 0.0 0.0 0.00 0.00 0.00 88 1018.5
20260902080043 72 153 0.0 1.0 0.00 0.00 0.00 88 1018.4
20260902075546 73 153 0.0 1.0 0.00 0.00 0.00 88 1018.4
20260902075042 73 153 0.0 0.0 0.00 0.00 0.00 88 1018.2
20260902074542 73 153 0.0 2.0 0.00 0.00 0.00 88 1018.4
20260902074041 73 153 0.0 2.0 0.00 0.00 0.00 88 1018.2
20260902073540 73 150 0.0 0.0 0.00 0.00 0.00 88 1018.2
20260902073041 73 177 0.0 0.0 0.00 0.00 0.00 88 1018.4
20260902072544 73 177 0.0 2.0 0.00 0.00 0.00 88 1018.4
20260902072040 73 142 0.0 4.0 0.00 0.00 0.00 87 1018.5
20260902071540 73 163 0.0 4.0 0.00 0.00 0.00 88 1018.4
20260902071039 73 134 0.0 6.0 0.00 0.00 0.00 88 1018.4
20260902070639 73 130 1.0 6.0 0.00 0.00 0.00 88 1018.3
20260902070101 73 139 1.0 7.0 0.00 0.00 0.00 88 1018.2
20260902065600 73 188 1.0 7.0 0.00 0.00 0.00 88 1018.4
20260902065059 73 147 0.0 7.0 0.00 0.00 0.00 89 1018.4
20260902064559 73 159 2.0 7.0 0.00 0.00 0.00 89 1018.4
20260902064059 73 195 1.0 5.0 0.00 0.00 0.00 89 1018.4
20260902063559 73 159 1.0 5.0 0.00 0.00 0.00 89 1018.4
20260902063058 73 155 1.0 5.0 0.00 0.00 0.00 89 1018.4
20260902062559 73 171 2.0 5.0 0.00 0.00 0.00 89 1018.4
20260902062058 73 152 1.0 5.0 0.00 0.00 0.00 89 1018.4
20260902061558 73 141 1.0 3.0 0.00 0.00 0.00 88 1018.5
20260902061057 73 120 0.0 2.0 0.00 0.00 0.00 88 1018.5
20260902060658 73 155 0.0 3.0 0.00 0.00 0.00 88 1018.4
20260902060105 73 173 1.0 5.0 0.00 0.00 0.00 88 1018.3
20260902055556 74 129 0.0 5.0 0.00 0.00 0.00 88 1018.3
20260902055056 74 122 1.0 3.0 0.00 0.00 0.00 88 1018.3
20260902054606 74 184 1.0 4.0 0.00 0.00 0.00 89 1018.4
20260902054054 74 160 1.0 4.0 0.00 0.00 0.00 88 1018.2
20260902053554 74 135 1.0 5.0 0.00 0.00 0.00 89 1018.2
20260902053105 74 127 2.0 5.0 0.00 0.00 0.00 89 1018.1
20260902052553 74 170 2.0 6.0 0.00 0.00 0.00 90 1018.1
20260902052053 74 126 2.0 6.0 0.00 0.00 0.00 90 1018.0
20260902051602 74 136 0.0 5.0 0.00 0.00 0.00 90 1018.1
20260902051052 74 164 0.0 5.0 0.00 0.00 0.00 89 1018.0
20260902050652 74 155 0.0 4.0 0.00 0.00 0.00 89 1018.1
20260902050058 74 178 1.0 4.0 0.00 0.00 0.00 89 1017.9
20260902045552 74 175 0.0 0.0 0.00 0.00 0.00 89 1017.9
20260902045050 74 154 0.0 0.0 0.00 0.00 0.00 89 1017.9
20260902044551 74 155 0.0 2.0 0.00 0.00 0.00 89 1017.9
20260902044050 74 191 0.0 2.0 0.00 0.00 0.00 89 1017.8
20260902043550 74 164 0.0 3.0 0.00 0.00 0.00 89 1017.8
20260902043058 75 193 0.0 3.0 0.00 0.00 0.00 89 1017.8
20260902042551 75 173 0.0 3.0 0.00 0.00 0.00 88 1017.7
20260902042051 75 178 0.0 0.0 0.00 0.00 0.00 88 1017.9
20260902041550 75 185 0.0 0.0 0.00 0.00 0.00 88 1017.8
20260902041050 75 213 0.0 0.0 0.00 0.00 0.00 88 1017.8
20260902040650 75 196 0.0 0.0 0.00 0.00 0.00 88 1017.7
20260902040049 75 176 0.0 0.0 0.00 0.00 0.00 89 1017.8
20260902035546 75 166 0.0 0.0 0.00 0.00 0.00 88 1017.7
20260902035046 75 187 0.0 1.0 0.00 0.00 0.00 89 1017.7
20260902034546 75 170 0.0 1.0 0.00 0.00 0.00 88 1017.7
20260902034045 76 179 0.0 2.0 0.00 0.00 0.00 88 1017.8
20260902033545 76 177 0.0 3.0 0.00 0.00 0.00 88 1017.8
20260902033046 76 185 0.0 3.0 0.00 0.00 0.00 88 1017.8
20260902032545 76 172 0.0 4.0 0.00 0.00 0.00 88 1017.8
20260902032045 76 177 0.0 4.0 0.00 0.00 0.00 87 1017.8
20260902031545 77 169 0.0 3.0 0.00 0.00 0.00 86 1017.7
20260902031045 77 191 0.0 3.0 0.00 0.00 0.00 86 1017.7
20260902030646 77 163 0.0 1.0 0.00 0.00 0.00 86 1017.7
20260902030042 77 180 0.0 1.0 0.00 0.00 0.00 86 1017.5
20260902025542 77 157 0.0 0.0 0.00 0.00 0.00 86 1017.4
20260902025042 77 157 0.0 3.0 0.00 0.00 0.00 87 1017.3
20260902024542 76 171 0.0 3.0 0.00 0.00 0.00 87 1017.3
20260902024044 77 183 0.0 4.0 0.00 0.00 0.00 87 1017.3
20260902023544 77 136 0.0 4.0 0.00 0.00 0.00 87 1017.5
20260902023046 77 157 0.0 5.0 0.00 0.00 0.00 86 1017.4
20260902022542 77 168 0.0 2.0 0.00 0.00 0.00 86 1017.2
20260902022041 77 177 0.0 3.0 0.00 0.00 0.00 86 1017.2
20260902021540 77 165 0.0 3.0 0.00 0.00 0.00 85 1017.1
20260902021044 78 161 0.0 1.0 0.00 0.00 0.00 85 1017.1
20260902020641 78 150 0.0 2.0 0.00 0.00 0.00 84 1017.1
20260902020039 78 150 0.0 2.0 0.00 0.00 0.00 84 1017.1
20260902015539 78 180 0.0 0.0 0.00 0.00 0.00 84 1017.0
20260902015038 78 142 0.0 3.0 0.00 0.00 0.00 84 1017.1
20260902014538 78 149 0.0 4.0 0.00 0.00 0.00 84 1017.0
20260902014039 78 130 0.0 3.0 0.00 0.00 0.00 85 1016.9
20260902013538 78 164 0.0 5.0 0.00 0.00 0.00 85 1016.8
20260902013038 78 152 0.0 5.0 0.00 0.00 0.00 84 1016.8
20260902012537 78 125 0.0 3.0 0.00 0.00 0.00 84 1016.8
20260902012037 79 142 0.0 3.0 0.00 0.00 0.00 83 1016.7
20260902011550 79 165 0.0 3.0 0.00 0.00 0.00 82 1016.7
20260902011039 79 134 0.0 3.0 0.00 0.00 0.00 82 1016.6
20260902010638 80 113 0.0 3.0 0.00 0.00 0.00 81 1016.7
20260902010056 80 143 0.0 3.0 0.00 0.00 0.00 81 1016.7
20260902005556 80 166 0.0 3.0 0.00 0.00 0.00 80 1016.4
20260902005055 81 115 0.0 3.0 0.00 0.00 0.00 79 1016.5
20260902004555 82 96 0.0 3.0 0.00 0.00 0.00 77 1016.5
20260902004059 82 164 0.0 5.0 0.00 0.00 0.00 76 1016.4
20260902003556 83 160 0.0 5.0 0.00 0.00 0.00 76 1016.4
20260902003100 84 184 0.0 2.0 0.00 0.00 0.00 74 1016.4
20260902002557 84 178 0.0 3.0 0.00 0.00 0.00 73 1016.5
20260902002054 84 157 0.0 3.0 0.00 0.00 0.00 73 1016.5
20260902001558 84 152 0.0 6.0 0.00 0.00 0.00 74 1016.4
20260902001054 85 47 0.0 6.0 0.00 0.00 0.00 71 1016.4
20260902000654 86 161 1.0 6.0 0.00 0.00 0.00 70 1016.4
20260902000056 87 171 0.0 3.0 0.00 0.00 0.00 67 1016.5
20260901235552 87 180 0.0 6.0 0.00 0.00 0.00 67 1016.5
20260901235051 86 248 1.0 8.0 0.00 0.00 0.00 70 1016.5
20260901234559 86 109 1.0 4.0 0.00 0.00 0.00 71 1016.5
20260901234051 87 53 1.0 6.0 0.00 0.00 0.00 70 1016.5
20260901233551 88 97 1.0 6.0 0.00 0.00 0.00 65 1016.5
20260901233051 89 221 2.0 9.0 0.00 0.00 0.00 64 1016.6
20260901232551 89 79 2.0 9.0 0.00 0.00 0.00 65 1016.5
20260901232051 89 164 2.0 8.0 0.00 0.00 0.00 63 1016.6
20260901231608 89 106 2.0 8.0 0.00 0.00 0.00 65 1016.8
20260901231050 89 57 1.0 8.0 0.00 0.00 0.00 64 1016.7
20260901230652 88 88 2.0 7.0 0.00 0.00 0.00 64 1016.8
20260901230106 88 117 1.0 5.0 0.00 0.00 0.00 65 1016.7
20260901225551 89 113 1.0 9.0 0.00 0.00 0.00 64 1016.8
20260901225049 89 103 2.0 9.0 0.00 0.00 0.00 62 1016.8
20260901224551 90 93 2.0 8.0 0.00 0.00 0.00 63 1016.8
20260901224048 90 37 3.0 8.0 0.00 0.00 0.00 62 1016.8
20260901223552 90 64 2.0 7.0 0.00 0.00 0.00 61 1016.7
20260901223050 90 65 1.0 11.0 0.00 0.00 0.00 62 1016.8
20260901222547 90 104 0.0 11.0 0.00 0.00 0.00 62 1016.8
20260901222047 90 43 2.0 11.0 0.00 0.00 0.00 62 1016.7
20260901221609 91 87 2.0 11.0 0.00 0.00 0.00 58 1016.7
20260901221048 92 130 4.0 11.0 0.00 0.00 0.00 57 1016.7
20260901220648 92 85 4.0 10.0 0.00 0.00 0.00 55 1016.7
20260901220049 93 131 5.0 9.0 0.00 0.00 0.00 54 1016.4
20260901215542 93 91 2.0 6.0 0.00 0.00 0.00 58 1016.4
20260901215041 93 117 2.0 9.0 0.00 0.00 0.00 57 1016.3
20260901214541 92 144 1.0 9.0 0.00 0.00 0.00 59 1016.3
20260901214041 93 12 2.0 7.0 0.00 0.00 0.00 54 1016.3
20260901213541 93 247 1.0 7.0 0.00 0.00 0.00 54 1016.3
20260901213059 93 116 2.0 8.0 0.00 0.00 0.00 54 1016.4
20260901212541 93 86 1.0 8.0 0.00 0.00 0.00 52 1016.4
20260901212041 93 96 3.0 7.0 0.00 0.00 0.00 52 1016.3
20260901211541 94 110 2.0 9.0 0.00 0.00 0.00 53 1016.4
20260901211039 95 92 4.0 9.0 0.00 0.00 0.00 47 1016.4
20260901210501 95 98 3.0 10.0 0.00 0.00 0.00 48 1016.4
20260901210118 95 96 4.0 10.0 0.00 0.00 0.00 48 1016.6
20260901210002 95 92 3.0 10.0 0.00 0.00 0.00 50 1016.4